Data supplied by UK-AIR on 19/3/2021
All Data GMT hour ending 
Status: R =Ratified P=Provisional,P*=As supplied
,,Nottingham Western Boulevard,,,,,,,,,,,,,,,,,,,,,,,
Date,time,"PM<sub>10</sub> particulate matter (Hourly measured)",status,unit,"Nitric oxide",status,unit,"Nitrogen dioxide",status,unit,"Nitrogen oxides as nitrogen dioxide",status,unit
 
01-01-2020,01:00,54.107,R,ugm-3 (Ref.eq),2.66400,R,ugm-3,17.74572,R,ugm-3,21.83046,R,ugm-3
01-01-2020,02:00,25.121,R,ugm-3 (Ref.eq),4.72155,R,ugm-3,18.33367,R,ugm-3,25.57328,R,ugm-3
01-01-2020,03:00,28.020,R,ugm-3 (Ref.eq),2.01424,R,ugm-3,22.79003,R,ugm-3,25.87849,R,ugm-3
01-01-2020,04:00,27.054,R,ugm-3 (Ref.eq),1.36449,R,ugm-3,20.02742,R,ugm-3,22.11960,R,ugm-3
01-01-2020,05:00,26.087,R,ugm-3 (Ref.eq),1.39697,R,ugm-3,16.02596,R,ugm-3,18.16795,R,ugm-3
01-01-2020,06:00,20.290,R,ugm-3 (Ref.eq),6.14018,R,ugm-3,23.16220,R,ugm-3,32.57702,R,ugm-3
01-01-2020,07:00,30.918,R,ugm-3 (Ref.eq),21.57185,R,ugm-3,36.99312,R,ugm-3,70.06950,R,ugm-3
01-01-2020,08:00,36.716,R,ugm-3 (Ref.eq),38.46547,R,ugm-3,41.83569,R,ugm-3,100.81526,R,ugm-3
01-01-2020,09:00,36.716,R,ugm-3 (Ref.eq),15.30172,R,ugm-3,33.21013,R,ugm-3,56.67244,R,ugm-3
01-01-2020,10:00,46.378,R,ugm-3 (Ref.eq),6.65999,R,ugm-3,27.13608,R,ugm-3,37.34791,R,ugm-3
01-01-2020,11:00,44.445,R,ugm-3 (Ref.eq),9.12905,R,ugm-3,26.33806,R,ugm-3,40.33574,R,ugm-3
01-01-2020,12:00,46.378,R,ugm-3 (Ref.eq),14.91187,R,ugm-3,26.43470,R,ugm-3,49.29924,R,ugm-3
01-01-2020,13:00,42.513,R,ugm-3 (Ref.eq),18.61547,R,ugm-3,28.85198,R,ugm-3,57.39531,R,ugm-3
01-01-2020,14:00,39.614,R,ugm-3 (Ref.eq),30.40852,R,ugm-3,35.58785,R,ugm-3,82.21359,R,ugm-3
01-01-2020,15:00,41.547,R,ugm-3 (Ref.eq),29.46637,R,ugm-3,42.67078,R,ugm-3,87.85192,R,ugm-3
01-01-2020,16:00,35.749,R,ugm-3 (Ref.eq),24.65819,R,ugm-3,43.97118,R,ugm-3,81.77988,R,ugm-3
01-01-2020,17:00,32.851,R,ugm-3 (Ref.eq),17.70581,R,ugm-3,38.05369,R,ugm-3,65.20222,R,ugm-3
01-01-2020,18:00,32.851,R,ugm-3 (Ref.eq),24.13838,R,ugm-3,38.64796,R,ugm-3,75.65964,R,ugm-3
01-01-2020,19:00,31.885,R,ugm-3 (Ref.eq),15.30172,R,ugm-3,35.28234,R,ugm-3,58.74465,R,ugm-3
01-01-2020,20:00,18.358,R,ugm-3 (Ref.eq),9.61637,R,ugm-3,27.22934,R,ugm-3,41.97423,R,ugm-3
01-01-2020,21:00,28.986,R,ugm-3 (Ref.eq),7.14730,R,ugm-3,21.76255,R,ugm-3,32.72159,R,ugm-3
01-01-2020,22:00,29.952,R,ugm-3 (Ref.eq),9.90876,R,ugm-3,25.14253,R,ugm-3,40.33574,R,ugm-3
01-01-2020,23:00,32.851,R,ugm-3 (Ref.eq),7.60213,R,ugm-3,21.35430,R,ugm-3,33.01073,R,ugm-3
01-01-2020,24:00,29.952,R,ugm-3 (Ref.eq),3.86604,R,ugm-3,17.15557,R,ugm-3,23.08342,R,ugm-3
02-01-2020,01:00,28.986,R,ugm-3 (Ref.eq),3.28247,R,ugm-3,13.91203,R,ugm-3,18.94507,R,ugm-3
02-01-2020,02:00,24.155,R,ugm-3 (Ref.eq),1.08332,R,ugm-3,10.35837,R,ugm-3,12.01944,R,ugm-3
02-01-2020,03:00,21.256,R,ugm-3 (Ref.eq),1.78748,R,ugm-3,10.27493,R,ugm-3,13.01570,R,ugm-3
02-01-2020,04:00,17.392,R,ugm-3 (Ref.eq),1.98248,R,ugm-3,9.34926,R,ugm-3,12.38902,R,ugm-3
02-01-2020,05:00,14.493,R,ugm-3 (Ref.eq),3.02247,R,ugm-3,10.02033,R,ugm-3,14.65471,R,ugm-3
02-01-2020,06:00,9.662,R,ugm-3 (Ref.eq),6.27243,R,ugm-3,17.95640,R,ugm-3,27.57400,R,ugm-3
02-01-2020,07:00,14.493,R,ugm-3 (Ref.eq),8.87240,R,ugm-3,18.88688,R,ugm-3,32.49104,R,ugm-3
02-01-2020,08:00,7.730,R,ugm-3 (Ref.eq),10.52989,R,ugm-3,22.17840,R,ugm-3,38.32400,R,ugm-3
02-01-2020,09:00,12.561,R,ugm-3 (Ref.eq),11.04988,R,ugm-3,24.03244,R,ugm-3,40.97535,R,ugm-3
02-01-2020,10:00,12.561,R,ugm-3 (Ref.eq),17.80981,R,ugm-3,27.55077,R,ugm-3,54.85876,R,ugm-3
02-01-2020,11:00,10.628,R,ugm-3 (Ref.eq),14.94984,R,ugm-3,24.60864,R,ugm-3,47.53140,R,ugm-3
02-01-2020,12:00,19.324,R,ugm-3 (Ref.eq),20.11728,R,ugm-3,28.54408,R,ugm-3,59.39015,R,ugm-3
02-01-2020,13:00,12.561,R,ugm-3 (Ref.eq),24.50473,R,ugm-3,30.44568,R,ugm-3,68.01907,R,ugm-3
02-01-2020,14:00,16.425,R,ugm-3 (Ref.eq),19.95478,R,ugm-3,33.22822,R,ugm-3,63.82513,R,ugm-3
02-01-2020,15:00,19.324,R,ugm-3 (Ref.eq),19.49979,R,ugm-3,32.52789,R,ugm-3,62.42714,R,ugm-3
02-01-2020,16:00,24.155,R,ugm-3 (Ref.eq),23.04225,R,ugm-3,32.78453,R,ugm-3,68.11549,R,ugm-3
02-01-2020,17:00,21.256,R,ugm-3 (Ref.eq),25.08973,R,ugm-3,31.13951,R,ugm-3,69.60988,R,ugm-3
02-01-2020,18:00,16.425,R,ugm-3 (Ref.eq),16.31482,R,ugm-3,33.12108,R,ugm-3,58.13679,R,ugm-3
02-01-2020,19:00,12.561,R,ugm-3 (Ref.eq),11.73237,R,ugm-3,29.25278,R,ugm-3,47.24216,R,ugm-3
02-01-2020,20:00,15.459,R,ugm-3 (Ref.eq),8.70991,R,ugm-3,23.86025,R,ugm-3,37.21526,R,ugm-3
02-01-2020,21:00,10.628,R,ugm-3 (Ref.eq),5.81744,R,ugm-3,18.75047,R,ugm-3,27.67041,R,ugm-3
02-01-2020,22:00,7.730,R,ugm-3 (Ref.eq),5.52494,R,ugm-3,16.74043,R,ugm-3,25.21189,R,ugm-3
02-01-2020,23:00,4.831,R,ugm-3 (Ref.eq),4.28995,R,ugm-3,16.32015,R,ugm-3,22.89799,R,ugm-3
02-01-2020,24:00,3.865,R,ugm-3 (Ref.eq),3.89996,R,ugm-3,13.44728,R,ugm-3,19.42714,R,ugm-3
03-01-2020,01:00,3.865,R,ugm-3 (Ref.eq),3.03441,R,ugm-3,10.07100,R,ugm-3,14.72370,R,ugm-3
03-01-2020,02:00,4.831,R,ugm-3 (Ref.eq),2.16744,R,ugm-3,9.34288,R,ugm-3,12.66624,R,ugm-3
03-01-2020,03:00,6.763,R,ugm-3 (Ref.eq),2.63344,R,ugm-3,10.09109,R,ugm-3,14.12897,R,ugm-3
03-01-2020,04:00,5.797,R,ugm-3 (Ref.eq),2.14576,R,ugm-3,10.64596,R,ugm-3,13.93608,R,ugm-3
03-01-2020,05:00,11.594,R,ugm-3 (Ref.eq),9.52589,R,ugm-3,24.79100,R,ugm-3,39.39715,R,ugm-3
03-01-2020,06:00,6.763,R,ugm-3 (Ref.eq),9.75347,R,ugm-3,18.60721,R,ugm-3,33.56232,R,ugm-3
03-01-2020,07:00,9.662,R,ugm-3 (Ref.eq),19.31187,R,ugm-3,20.29837,R,ugm-3,49.90949,R,ugm-3
03-01-2020,08:00,10.628,R,ugm-3 (Ref.eq),21.78274,R,ugm-3,29.67428,R,ugm-3,63.07402,R,ugm-3
03-01-2020,09:00,24.155,R,ugm-3 (Ref.eq),17.16610,R,ugm-3,24.26360,R,ugm-3,50.58459,R,ugm-3
03-01-2020,10:00,26.087,R,ugm-3 (Ref.eq),28.90278,R,ugm-3,43.35013,R,ugm-3,87.66710,R,ugm-3
03-01-2020,11:00,28.986,R,ugm-3 (Ref.eq),32.44653,R,ugm-3,46.59635,R,ugm-3,96.34701,R,ugm-3
03-01-2020,12:00,26.087,R,ugm-3 (Ref.eq),29.09784,R,ugm-3,42.42414,R,ugm-3,87.04022,R,ugm-3
03-01-2020,13:00,24.155,R,ugm-3 (Ref.eq),27.40724,R,ugm-3,38.40999,R,ugm-3,80.43384,R,ugm-3
03-01-2020,14:00,26.087,R,ugm-3 (Ref.eq),20.09214,R,ugm-3,36.89578,R,ugm-3,67.70330,R,ugm-3
03-01-2020,15:00,28.020,R,ugm-3 (Ref.eq),31.92635,R,ugm-3,40.45003,R,ugm-3,89.40308,R,ugm-3
03-01-2020,16:00,30.918,R,ugm-3 (Ref.eq),29.52049,R,ugm-3,41.82431,R,ugm-3,87.08844,R,ugm-3
03-01-2020,17:00,30.918,R,ugm-3 (Ref.eq),40.28182,R,ugm-3,48.61494,R,ugm-3,110.37953,R,ugm-3
03-01-2020,18:00,27.054,R,ugm-3 (Ref.eq),42.13498,R,ugm-3,52.28340,R,ugm-3,116.88946,R,ugm-3
03-01-2020,19:00,27.054,R,ugm-3 (Ref.eq),24.61125,R,ugm-3,37.44095,R,ugm-3,75.17767,R,ugm-3
03-01-2020,20:00,26.087,R,ugm-3 (Ref.eq),22.62804,R,ugm-3,47.61864,R,ugm-3,82.31449,R,ugm-3
03-01-2020,21:00,21.256,R,ugm-3 (Ref.eq),9.91603,R,ugm-3,21.49238,R,ugm-3,36.69673,R,ugm-3
03-01-2020,22:00,25.121,R,ugm-3 (Ref.eq),10.76133,R,ugm-3,21.78758,R,ugm-3,38.28805,R,ugm-3
03-01-2020,23:00,18.358,R,ugm-3 (Ref.eq),11.37905,R,ugm-3,24.69816,R,ugm-3,42.14579,R,ugm-3
03-01-2020,24:00,12.561,R,ugm-3 (Ref.eq),3.44623,R,ugm-3,10.05037,R,ugm-3,15.33451,R,ugm-3
04-01-2020,01:00,12.561,R,ugm-3 (Ref.eq),2.38506,R,ugm-3,6.63356,R,ugm-3,10.29059,R,ugm-3
04-01-2020,02:00,9.662,R,ugm-3 (Ref.eq),1.47440,R,ugm-3,3.33480,R,ugm-3,5.59551,R,ugm-3
04-01-2020,03:00,8.696,R,ugm-3 (Ref.eq),1.23589,R,ugm-3,3.16989,R,ugm-3,5.06490,R,ugm-3
04-01-2020,04:00,9.662,R,ugm-3 (Ref.eq),1.30094,R,ugm-3,3.45605,R,ugm-3,5.45080,R,ugm-3
04-01-2020,05:00,8.696,R,ugm-3 (Ref.eq),2.43926,R,ugm-3,5.56963,R,ugm-3,9.30977,R,ugm-3
04-01-2020,06:00,8.696,R,ugm-3 (Ref.eq),6.82993,R,ugm-3,14.90034,R,ugm-3,25.37275,R,ugm-3
04-01-2020,07:00,11.594,R,ugm-3 (Ref.eq),10.01723,R,ugm-3,24.00199,R,ugm-3,39.36153,R,ugm-3
04-01-2020,08:00,15.459,R,ugm-3 (Ref.eq),11.44826,R,ugm-3,27.64447,R,ugm-3,45.19822,R,ugm-3
04-01-2020,09:00,11.594,R,ugm-3 (Ref.eq),7.02507,R,ugm-3,12.76811,R,ugm-3,23.53974,R,ugm-3
04-01-2020,10:00,11.594,R,ugm-3 (Ref.eq),14.86323,R,ugm-3,25.59191,R,ugm-3,48.38188,R,ugm-3
04-01-2020,11:00,15.459,R,ugm-3 (Ref.eq),15.02584,R,ugm-3,24.08840,R,ugm-3,47.12771,R,ugm-3
04-01-2020,12:00,10.628,R,ugm-3 (Ref.eq),17.07482,R,ugm-3,25.91511,R,ugm-3,52.09614,R,ugm-3
04-01-2020,13:00,10.628,R,ugm-3 (Ref.eq),19.74175,R,ugm-3,27.85553,R,ugm-3,58.12578,R,ugm-3
04-01-2020,14:00,14.493,R,ugm-3 (Ref.eq),18.76604,R,ugm-3,29.88219,R,ugm-3,58.65639,R,ugm-3
04-01-2020,15:00,17.392,R,ugm-3 (Ref.eq),23.77466,R,ugm-3,36.28768,R,ugm-3,72.74164,R,ugm-3
04-01-2020,16:00,12.561,R,ugm-3 (Ref.eq),22.27858,R,ugm-3,35.10856,R,ugm-3,69.26857,R,ugm-3
04-01-2020,17:00,21.256,R,ugm-3 (Ref.eq),26.44158,R,ugm-3,48.93675,R,ugm-3,89.47994,R,ugm-3
04-01-2020,18:00,14.493,R,ugm-3 (Ref.eq),36.75152,R,ugm-3,50.63848,R,ugm-3,106.99003,R,ugm-3
04-01-2020,19:00,16.425,R,ugm-3 (Ref.eq),31.05991,R,ugm-3,55.31357,R,ugm-3,102.93811,R,ugm-3
04-01-2020,20:00,16.425,R,ugm-3 (Ref.eq),19.18885,R,ugm-3,37.96483,R,ugm-3,67.38732,R,ugm-3
04-01-2020,21:00,13.527,R,ugm-3 (Ref.eq),13.95257,R,ugm-3,29.59304,R,ugm-3,50.98668,R,ugm-3
04-01-2020,22:00,11.594,R,ugm-3 (Ref.eq),10.01723,R,ugm-3,28.87394,R,ugm-3,44.23348,R,ugm-3
04-01-2020,23:00,8.696,R,ugm-3 (Ref.eq),8.42358,R,ugm-3,27.07264,R,ugm-3,39.98861,R,ugm-3
04-01-2020,24:00,13.527,R,ugm-3 (Ref.eq),5.88675,R,ugm-3,26.18691,R,ugm-3,35.21313,R,ugm-3
05-01-2020,01:00,10.628,R,ugm-3 (Ref.eq),10.02090,R,ugm-3,34.23851,R,ugm-3,49.60367,R,ugm-3
05-01-2020,02:00,8.696,R,ugm-3 (Ref.eq),3.81749,R,ugm-3,26.12199,R,ugm-3,31.97539,R,ugm-3
05-01-2020,03:00,6.763,R,ugm-3 (Ref.eq),4.42481,R,ugm-3,28.10201,R,ugm-3,34.88663,R,ugm-3
05-01-2020,04:00,5.797,R,ugm-3 (Ref.eq),5.43341,R,ugm-3,19.60715,R,ugm-3,27.93826,R,ugm-3
05-01-2020,05:00,4.831,R,ugm-3 (Ref.eq),1.88705,R,ugm-3,8.01165,R,ugm-3,10.90509,R,ugm-3
05-01-2020,06:00,3.865,R,ugm-3 (Ref.eq),2.70044,R,ugm-3,7.87429,R,ugm-3,12.01490,R,ugm-3
05-01-2020,07:00,6.763,R,ugm-3 (Ref.eq),5.17313,R,ugm-3,9.05290,R,ugm-3,16.98492,R,ugm-3
05-01-2020,08:00,5.797,R,ugm-3 (Ref.eq),4.94538,R,ugm-3,13.88960,R,ugm-3,21.47241,R,ugm-3
05-01-2020,09:00,5.797,R,ugm-3 (Ref.eq),6.63722,R,ugm-3,17.66483,R,ugm-3,27.84175,R,ugm-3
05-01-2020,10:00,9.662,R,ugm-3 (Ref.eq),14.41318,R,ugm-3,30.15767,R,ugm-3,52.25757,R,ugm-3
05-01-2020,11:00,9.662,R,ugm-3 (Ref.eq),18.38249,R,ugm-3,32.85345,R,ugm-3,61.03954,R,ugm-3
05-01-2020,12:00,7.730,R,ugm-3 (Ref.eq),17.73178,R,ugm-3,30.28049,R,ugm-3,57.46885,R,ugm-3
05-01-2020,13:00,6.763,R,ugm-3 (Ref.eq),23.84844,R,ugm-3,30.89004,R,ugm-3,67.45714,R,ugm-3
05-01-2020,14:00,11.594,R,ugm-3 (Ref.eq),20.17194,R,ugm-3,33.96988,R,ugm-3,64.89975,R,ugm-3
05-01-2020,15:00,8.696,R,ugm-3 (Ref.eq),17.60164,R,ugm-3,30.86606,R,ugm-3,57.85487,R,ugm-3
05-01-2020,16:00,12.561,R,ugm-3 (Ref.eq),17.40643,R,ugm-3,37.19696,R,ugm-3,63.88644,R,ugm-3
05-01-2020,17:00,10.628,R,ugm-3 (Ref.eq),10.63907,R,ugm-3,37.29563,R,ugm-3,53.60864,R,ugm-3
05-01-2020,18:00,11.594,R,ugm-3 (Ref.eq),11.87542,R,ugm-3,35.78595,R,ugm-3,53.99466,R,ugm-3
05-01-2020,19:00,15.459,R,ugm-3 (Ref.eq),8.84963,R,ugm-3,34.20084,R,ugm-3,47.77008,R,ugm-3
05-01-2020,20:00,13.527,R,ugm-3 (Ref.eq),5.82383,R,ugm-3,27.06669,R,ugm-3,35.99644,R,ugm-3
05-01-2020,21:00,12.561,R,ugm-3 (Ref.eq),7.09271,R,ugm-3,23.28750,R,ugm-3,34.16284,R,ugm-3
05-01-2020,22:00,14.493,R,ugm-3 (Ref.eq),4.48988,R,ugm-3,20.52309,R,ugm-3,27.40748,R,ugm-3
05-01-2020,23:00,14.493,R,ugm-3 (Ref.eq),2.47269,R,ugm-3,14.59284,R,ugm-3,18.38424,R,ugm-3
05-01-2020,24:00,16.425,R,ugm-3 (Ref.eq),2.17987,R,ugm-3,12.33967,R,ugm-3,15.68210,R,ugm-3
06-01-2020,01:00,12.561,R,ugm-3 (Ref.eq),1.08491,R,ugm-3,9.66339,R,ugm-3,11.32690,R,ugm-3
06-01-2020,02:00,6.763,R,ugm-3 (Ref.eq),1.17170,R,ugm-3,5.02530,R,ugm-3,6.82188,R,ugm-3
06-01-2020,03:00,5.797,R,ugm-3 (Ref.eq),0.94387,R,ugm-3,4.77933,R,ugm-3,6.22658,R,ugm-3
06-01-2020,04:00,8.696,R,ugm-3 (Ref.eq),1.10661,R,ugm-3,4.24019,R,ugm-3,5.93697,R,ugm-3
06-01-2020,05:00,8.696,R,ugm-3 (Ref.eq),3.45001,R,ugm-3,6.29438,R,ugm-3,11.58433,R,ugm-3
06-01-2020,06:00,12.561,R,ugm-3 (Ref.eq),5.37030,R,ugm-3,10.87979,R,ugm-3,19.11414,R,ugm-3
06-01-2020,07:00,9.662,R,ugm-3 (Ref.eq),13.08401,R,ugm-3,22.41400,R,ugm-3,42.47587,R,ugm-3
06-01-2020,08:00,11.594,R,ugm-3 (Ref.eq),12.72599,R,ugm-3,33.19578,R,ugm-3,52.70870,R,ugm-3
06-01-2020,09:00,16.425,R,ugm-3 (Ref.eq),10.70806,R,ugm-3,32.28365,R,ugm-3,48.70245,R,ugm-3
06-01-2020,10:00,17.392,R,ugm-3 (Ref.eq),19.65857,R,ugm-3,35.16394,R,ugm-3,65.30666,R,ugm-3
06-01-2020,11:00,10.628,R,ugm-3 (Ref.eq),9.27598,R,ugm-3,22.12286,R,ugm-3,36.34583,R,ugm-3
06-01-2020,12:00,13.527,R,ugm-3 (Ref.eq),12.66090,R,ugm-3,24.99349,R,ugm-3,44.40660,R,ugm-3
06-01-2020,13:00,12.561,R,ugm-3 (Ref.eq),13.08401,R,ugm-3,27.28907,R,ugm-3,47.35095,R,ugm-3
06-01-2020,14:00,19.324,R,ugm-3 (Ref.eq),13.53968,R,ugm-3,25.43197,R,ugm-3,46.19251,R,ugm-3
06-01-2020,15:00,13.527,R,ugm-3 (Ref.eq),13.40949,R,ugm-3,28.28633,R,ugm-3,48.84725,R,ugm-3
06-01-2020,16:00,11.594,R,ugm-3 (Ref.eq),19.69112,R,ugm-3,29.41841,R,ugm-3,59.61103,R,ugm-3
06-01-2020,17:00,16.425,R,ugm-3 (Ref.eq),44.98037,R,ugm-3,49.48084,R,ugm-3,118.44977,R,ugm-3
06-01-2020,18:00,17.392,R,ugm-3 (Ref.eq),41.07469,R,ugm-3,47.21562,R,ugm-3,110.19593,R,ugm-3
06-01-2020,19:00,17.392,R,ugm-3 (Ref.eq),33.91428,R,ugm-3,50.32707,R,ugm-3,102.32824,R,ugm-3
06-01-2020,20:00,21.256,R,ugm-3 (Ref.eq),25.35435,R,ugm-3,43.13128,R,ugm-3,82.00740,R,ugm-3
06-01-2020,21:00,17.392,R,ugm-3 (Ref.eq),15.06940,R,ugm-3,33.51232,R,ugm-3,56.61841,R,ugm-3
06-01-2020,22:00,22.223,R,ugm-3 (Ref.eq),13.21420,R,ugm-3,36.59825,R,ugm-3,56.85975,R,ugm-3
06-01-2020,23:00,18.358,R,ugm-3 (Ref.eq),23.92226,R,ugm-3,49.71950,R,ugm-3,86.39979,R,ugm-3
06-01-2020,24:00,19.324,R,ugm-3 (Ref.eq),13.11656,R,ugm-3,36.89277,R,ugm-3,57.00455,R,ugm-3
07-01-2020,01:00,19.324,R,ugm-3 (Ref.eq),22.70462,R,ugm-3,47.84804,R,ugm-3,82.66131,R,ugm-3
07-01-2020,02:00,16.425,R,ugm-3 (Ref.eq),18.36340,R,ugm-3,42.14393,R,ugm-3,70.30074,R,ugm-3
07-01-2020,03:00,10.628,R,ugm-3 (Ref.eq),4.29782,R,ugm-3,21.22139,R,ugm-3,27.81128,R,ugm-3
07-01-2020,04:00,15.459,R,ugm-3 (Ref.eq),15.95401,R,ugm-3,28.84248,R,ugm-3,53.30496,R,ugm-3
07-01-2020,05:00,16.425,R,ugm-3 (Ref.eq),11.13525,R,ugm-3,23.43602,R,ugm-3,40.50984,R,ugm-3
07-01-2020,06:00,16.425,R,ugm-3 (Ref.eq),10.45151,R,ugm-3,24.53270,R,ugm-3,40.55812,R,ugm-3
07-01-2020,07:00,16.425,R,ugm-3 (Ref.eq),16.83311,R,ugm-3,32.27461,R,ugm-3,58.08502,R,ugm-3
07-01-2020,08:00,28.020,R,ugm-3 (Ref.eq),44.57356,R,ugm-3,48.59741,R,ugm-3,116.94258,R,ugm-3
07-01-2020,09:00,25.121,R,ugm-3 (Ref.eq),27.21950,R,ugm-3,47.92643,R,ugm-3,89.66241,R,ugm-3
07-01-2020,10:00,21.256,R,ugm-3 (Ref.eq),23.37751,R,ugm-3,42.85704,R,ugm-3,78.70206,R,ugm-3
07-01-2020,11:00,27.054,R,ugm-3 (Ref.eq),23.70311,R,ugm-3,46.75161,R,ugm-3,83.09586,R,ugm-3
07-01-2020,12:00,,,,,,,,,,,,
07-01-2020,13:00,26.087,R,ugm-3 (Ref.eq),25.81945,R,ugm-3,37.80913,R,ugm-3,77.39841,R,ugm-3
07-01-2020,14:00,23.189,R,ugm-3 (Ref.eq),26.69855,R,ugm-3,46.55245,R,ugm-3,87.48966,R,ugm-3
07-01-2020,15:00,19.324,R,ugm-3 (Ref.eq),24.38685,R,ugm-3,38.36413,R,ugm-3,75.75677,R,ugm-3
07-01-2020,16:00,21.256,R,ugm-3 (Ref.eq),25.88457,R,ugm-3,38.96466,R,ugm-3,78.65378,R,ugm-3
07-01-2020,17:00,8.696,R,ugm-3 (Ref.eq),26.89391,R,ugm-3,35.82368,R,ugm-3,77.06043,R,ugm-3
07-01-2020,18:00,6.763,R,ugm-3 (Ref.eq),40.17807,R,ugm-3,34.86488,R,ugm-3,96.47038,R,ugm-3
07-01-2020,19:00,6.763,R,ugm-3 (Ref.eq),20.18671,R,ugm-3,29.45010,R,ugm-3,60.40263,R,ugm-3
07-01-2020,20:00,5.797,R,ugm-3 (Ref.eq),14.13070,R,ugm-3,26.95469,R,ugm-3,48.62146,R,ugm-3
07-01-2020,21:00,5.797,R,ugm-3 (Ref.eq),8.30260,R,ugm-3,21.06796,R,ugm-3,33.79843,R,ugm-3
07-01-2020,22:00,4.831,R,ugm-3 (Ref.eq),7.65142,R,ugm-3,16.75524,R,ugm-3,28.48725,R,ugm-3
07-01-2020,23:00,5.797,R,ugm-3 (Ref.eq),4.91644,R,ugm-3,13.03032,R,ugm-3,20.56876,R,ugm-3
07-01-2020,24:00,2.899,R,ugm-3 (Ref.eq),3.25592,R,ugm-3,9.29957,R,ugm-3,14.29191,R,ugm-3
08-01-2020,01:00,-0.966,R,ugm-3 (Ref.eq),2.82538,R,ugm-3,6.94901,R,ugm-3,11.28119,R,ugm-3
08-01-2020,02:00,3.865,R,ugm-3 (Ref.eq),2.91231,R,ugm-3,6.30000,R,ugm-3,10.76548,R,ugm-3
08-01-2020,03:00,5.797,R,ugm-3 (Ref.eq),0.68461,R,ugm-3,3.97847,R,ugm-3,5.02819,R,ugm-3
08-01-2020,04:00,10.628,R,ugm-3 (Ref.eq),2.80364,R,ugm-3,6.28935,R,ugm-3,10.58820,R,ugm-3
08-01-2020,05:00,19.324,R,ugm-3 (Ref.eq),2.99925,R,ugm-3,8.35848,R,ugm-3,12.95725,R,ugm-3
08-01-2020,06:00,23.189,R,ugm-3 (Ref.eq),9.87795,R,ugm-3,17.68229,R,ugm-3,32.82827,R,ugm-3
08-01-2020,07:00,27.054,R,ugm-3 (Ref.eq),22.75514,R,ugm-3,37.67956,R,ugm-3,72.57029,R,ugm-3
08-01-2020,08:00,32.851,R,ugm-3 (Ref.eq),53.26920,R,ugm-3,50.79511,R,ugm-3,132.47341,R,ugm-3
08-01-2020,09:00,24.155,R,ugm-3 (Ref.eq),59.07209,R,ugm-3,58.52918,R,ugm-3,149.10511,R,ugm-3
08-01-2020,10:00,38.648,R,ugm-3 (Ref.eq),53.75821,R,ugm-3,50.67384,R,ugm-3,133.10194,R,ugm-3
08-01-2020,11:00,40.580,R,ugm-3 (Ref.eq),46.87950,R,ugm-3,57.06311,R,ugm-3,128.94401,R,ugm-3
08-01-2020,12:00,35.749,R,ugm-3 (Ref.eq),42.90224,R,ugm-3,50.44597,R,ugm-3,116.22850,R,ugm-3
08-01-2020,13:00,31.885,R,ugm-3 (Ref.eq),39.15319,R,ugm-3,46.28312,R,ugm-3,106.31716,R,ugm-3
08-01-2020,14:00,33.817,R,ugm-3 (Ref.eq),36.77335,R,ugm-3,49.01354,R,ugm-3,105.39855,R,ugm-3
08-01-2020,15:00,40.580,R,ugm-3 (Ref.eq),61.74533,R,ugm-3,59.55515,R,ugm-3,154.22999,R,ugm-3
08-01-2020,16:00,50.242,R,ugm-3 (Ref.eq),98.84468,R,ugm-3,88.43954,R,ugm-3,239.99928,R,ugm-3
08-01-2020,17:00,37.682,R,ugm-3 (Ref.eq),74.55732,R,ugm-3,82.45657,R,ugm-3,196.77620,R,ugm-3
08-01-2020,18:00,28.020,R,ugm-3 (Ref.eq),79.28439,R,ugm-3,75.01511,R,ugm-3,196.58281,R,ugm-3
08-01-2020,19:00,35.749,R,ugm-3 (Ref.eq),55.61643,R,ugm-3,76.93006,R,ugm-3,162.20741,R,ugm-3
08-01-2020,20:00,38.648,R,ugm-3 (Ref.eq),40.03340,R,ugm-3,70.46120,R,ugm-3,131.84489,R,ugm-3
08-01-2020,21:00,22.223,R,ugm-3 (Ref.eq),12.97500,R,ugm-3,51.85366,R,ugm-3,71.74837,R,ugm-3
08-01-2020,22:00,17.392,R,ugm-3 (Ref.eq),9.03034,R,ugm-3,39.09470,R,ugm-3,52.94102,R,ugm-3
08-01-2020,23:00,10.628,R,ugm-3 (Ref.eq),2.57544,R,ugm-3,27.81566,R,ugm-3,31.76461,R,ugm-3
08-01-2020,24:00,9.662,R,ugm-3 (Ref.eq),0.91281,R,ugm-3,10.05884,R,ugm-3,11.45847,R,ugm-3
09-01-2020,01:00,6.763,R,ugm-3 (Ref.eq),0.84869,R,ugm-3,6.88040,R,ugm-3,8.18170,R,ugm-3
09-01-2020,02:00,5.797,R,ugm-3 (Ref.eq),1.82794,R,ugm-3,13.07648,R,ugm-3,15.87928,R,ugm-3
09-01-2020,03:00,3.865,R,ugm-3 (Ref.eq),2.12172,R,ugm-3,13.54587,R,ugm-3,16.79912,R,ugm-3
09-01-2020,04:00,4.831,R,ugm-3 (Ref.eq),11.19613,R,ugm-3,28.63102,R,ugm-3,45.79817,R,ugm-3
09-01-2020,05:00,18.358,R,ugm-3 (Ref.eq),9.82517,R,ugm-3,16.88716,R,ugm-3,31.95221,R,ugm-3
09-01-2020,06:00,3.865,R,ugm-3 (Ref.eq),4.04758,R,ugm-3,9.76991,R,ugm-3,15.97611,R,ugm-3
09-01-2020,07:00,1.932,R,ugm-3 (Ref.eq),8.42158,R,ugm-3,17.39329,R,ugm-3,30.30619,R,ugm-3
09-01-2020,08:00,12.561,R,ugm-3 (Ref.eq),40.47579,R,ugm-3,42.79934,R,ugm-3,104.86136,R,ugm-3
09-01-2020,09:00,15.459,R,ugm-3 (Ref.eq),67.43789,R,ugm-3,58.48790,R,ugm-3,161.89122,R,ugm-3
09-01-2020,10:00,25.121,R,ugm-3 (Ref.eq),54.08741,R,ugm-3,54.55848,R,ugm-3,137.49134,R,ugm-3
09-01-2020,11:00,21.256,R,ugm-3 (Ref.eq),35.48160,R,ugm-3,34.67454,R,ugm-3,89.07890,R,ugm-3
09-01-2020,12:00,17.392,R,ugm-3 (Ref.eq),22.00055,R,ugm-3,21.94061,R,ugm-3,55.67431,R,ugm-3
09-01-2020,13:00,16.425,R,ugm-3 (Ref.eq),17.10429,R,ugm-3,20.87910,R,ugm-3,47.10531,R,ugm-3
09-01-2020,14:00,17.392,R,ugm-3 (Ref.eq),33.88215,R,ugm-3,34.31907,R,ugm-3,86.27098,R,ugm-3
09-01-2020,15:00,23.189,R,ugm-3 (Ref.eq),36.23236,R,ugm-3,37.83210,R,ugm-3,93.38761,R,ugm-3
09-01-2020,16:00,29.952,R,ugm-3 (Ref.eq),58.78782,R,ugm-3,56.59805,R,ugm-3,146.73812,R,ugm-3
09-01-2020,17:00,23.189,R,ugm-3 (Ref.eq),63.25974,R,ugm-3,61.36019,R,ugm-3,158.35711,R,ugm-3
09-01-2020,18:00,25.121,R,ugm-3 (Ref.eq),55.22987,R,ugm-3,58.76146,R,ugm-3,143.44608,R,ugm-3
09-01-2020,19:00,23.189,R,ugm-3 (Ref.eq),24.05698,R,ugm-3,50.15872,R,ugm-3,87.04558,R,ugm-3
09-01-2020,20:00,23.189,R,ugm-3 (Ref.eq),20.53167,R,ugm-3,41.04039,R,ugm-3,72.52184,R,ugm-3
09-01-2020,21:00,26.087,R,ugm-3 (Ref.eq),14.16653,R,ugm-3,38.84227,R,ugm-3,60.56397,R,ugm-3
09-01-2020,22:00,15.459,R,ugm-3 (Ref.eq),11.78368,R,ugm-3,36.10547,R,ugm-3,54.17353,R,ugm-3
09-01-2020,23:00,13.527,R,ugm-3 (Ref.eq),8.02987,R,ugm-3,27.38590,R,ugm-3,39.69820,R,ugm-3
09-01-2020,24:00,13.527,R,ugm-3 (Ref.eq),3.16625,R,ugm-3,16.68869,R,ugm-3,21.54354,R,ugm-3
10-01-2020,01:00,8.696,R,ugm-3 (Ref.eq),1.30732,R,ugm-3,8.99973,R,ugm-3,11.00426,R,ugm-3
10-01-2020,02:00,5.797,R,ugm-3 (Ref.eq),3.13757,R,ugm-3,7.21140,R,ugm-3,12.02228,R,ugm-3
10-01-2020,03:00,4.831,R,ugm-3 (Ref.eq),1.99367,R,ugm-3,5.18417,R,ugm-3,8.24108,R,ugm-3
10-01-2020,04:00,2.899,R,ugm-3 (Ref.eq),2.61464,R,ugm-3,6.51043,R,ugm-3,10.51949,R,ugm-3
10-01-2020,05:00,3.865,R,ugm-3 (Ref.eq),7.41905,R,ugm-3,14.31705,R,ugm-3,25.69277,R,ugm-3
10-01-2020,06:00,5.797,R,ugm-3 (Ref.eq),18.69470,R,ugm-3,24.80525,R,ugm-3,53.47005,R,ugm-3
10-01-2020,07:00,9.662,R,ugm-3 (Ref.eq),27.12693,R,ugm-3,39.41091,R,ugm-3,81.00495,R,ugm-3
10-01-2020,08:00,17.392,R,ugm-3 (Ref.eq),113.67163,R,ugm-3,83.79711,R,ugm-3,258.09118,R,ugm-3
10-01-2020,09:00,19.324,R,ugm-3 (Ref.eq),141.28880,R,ugm-3,96.90898,R,ugm-3,313.54878,R,ugm-3
10-01-2020,10:00,18.358,R,ugm-3 (Ref.eq),62.32656,R,ugm-3,66.29840,R,ugm-3,161.86447,R,ugm-3
10-01-2020,11:00,23.189,R,ugm-3 (Ref.eq),57.75094,R,ugm-3,58.23794,R,ugm-3,146.78815,R,ugm-3
10-01-2020,12:00,29.952,R,ugm-3 (Ref.eq),48.66505,R,ugm-3,51.51827,R,ugm-3,126.13697,R,ugm-3
10-01-2020,13:00,39.614,R,ugm-3 (Ref.eq),52.39092,R,ugm-3,59.23346,R,ugm-3,139.56508,R,ugm-3
10-01-2020,14:00,44.445,R,ugm-3 (Ref.eq),70.39928,R,ugm-3,68.75436,R,ugm-3,176.69841,R,ugm-3
10-01-2020,15:00,31.885,R,ugm-3 (Ref.eq),76.57637,R,ugm-3,66.50601,R,ugm-3,183.92147,R,ugm-3
10-01-2020,16:00,26.087,R,ugm-3 (Ref.eq),72.98124,R,ugm-3,72.16390,R,ugm-3,184.06690,R,ugm-3
10-01-2020,17:00,26.087,R,ugm-3 (Ref.eq),78.47199,R,ugm-3,81.19656,R,ugm-3,201.51860,R,ugm-3
10-01-2020,18:00,22.223,R,ugm-3 (Ref.eq),50.03774,R,ugm-3,74.28217,R,ugm-3,151.00564,R,ugm-3
10-01-2020,19:00,22.223,R,ugm-3 (Ref.eq),25.72156,R,ugm-3,61.05351,R,ugm-3,100.49268,R,ugm-3
10-01-2020,20:00,22.223,R,ugm-3 (Ref.eq),14.60932,R,ugm-3,47.21223,R,ugm-3,69.61287,R,ugm-3
10-01-2020,21:00,14.493,R,ugm-3 (Ref.eq),9.96833,R,ugm-3,38.96113,R,ugm-3,54.24569,R,ugm-3
10-01-2020,22:00,13.527,R,ugm-3 (Ref.eq),6.40588,R,ugm-3,27.21417,R,ugm-3,37.03638,R,ugm-3
10-01-2020,23:00,12.561,R,ugm-3 (Ref.eq),5.55612,R,ugm-3,22.79684,R,ugm-3,31.31610,R,ugm-3
10-01-2020,24:00,11.594,R,ugm-3 (Ref.eq),2.48391,R,ugm-3,14.66110,R,ugm-3,18.46971,R,ugm-3
11-01-2020,01:00,14.493,R,ugm-3 (Ref.eq),1.73439,R,ugm-3,10.98078,R,ugm-3,13.64014,R,ugm-3
11-01-2020,02:00,9.662,R,ugm-3 (Ref.eq),3.53423,R,ugm-3,14.32110,R,ugm-3,19.74018,R,ugm-3
11-01-2020,03:00,10.628,R,ugm-3 (Ref.eq),1.76711,R,ugm-3,7.24145,R,ugm-3,9.95099,R,ugm-3
11-01-2020,04:00,7.730,R,ugm-3 (Ref.eq),1.04718,R,ugm-3,3.78245,R,ugm-3,5.38810,R,ugm-3
11-01-2020,05:00,12.561,R,ugm-3 (Ref.eq),1.50532,R,ugm-3,4.14789,R,ugm-3,6.45601,R,ugm-3
11-01-2020,06:00,7.730,R,ugm-3 (Ref.eq),2.65067,R,ugm-3,6.27502,R,ugm-3,10.33932,R,ugm-3
11-01-2020,07:00,4.831,R,ugm-3 (Ref.eq),3.73057,R,ugm-3,8.01709,R,ugm-3,13.73722,R,ugm-3
11-01-2020,08:00,6.763,R,ugm-3 (Ref.eq),7.26480,R,ugm-3,12.88880,R,ugm-3,24.02800,R,ugm-3
11-01-2020,09:00,6.763,R,ugm-3 (Ref.eq),6.83938,R,ugm-3,14.94879,R,ugm-3,25.43570,R,ugm-3
11-01-2020,10:00,6.763,R,ugm-3 (Ref.eq),7.91929,R,ugm-3,15.13754,R,ugm-3,27.28028,R,ugm-3
11-01-2020,11:00,10.628,R,ugm-3 (Ref.eq),10.07909,R,ugm-3,17.40815,R,ugm-3,32.86254,R,ugm-3
11-01-2020,12:00,10.628,R,ugm-3 (Ref.eq),19.50370,R,ugm-3,28.63570,R,ugm-3,58.54095,R,ugm-3
11-01-2020,13:00,5.797,R,ugm-3 (Ref.eq),19.60187,R,ugm-3,26.34934,R,ugm-3,56.40512,R,ugm-3
11-01-2020,14:00,6.763,R,ugm-3 (Ref.eq),21.69623,R,ugm-3,29.35134,R,ugm-3,62.61843,R,ugm-3
11-01-2020,15:00,5.797,R,ugm-3 (Ref.eq),15.24953,R,ugm-3,28.41140,R,ugm-3,51.79369,R,ugm-3
11-01-2020,16:00,5.797,R,ugm-3 (Ref.eq),12.20617,R,ugm-3,21.42788,R,ugm-3,40.14375,R,ugm-3
11-01-2020,17:00,5.797,R,ugm-3 (Ref.eq),11.25717,R,ugm-3,18.80552,R,ugm-3,36.06627,R,ugm-3
11-01-2020,18:00,7.730,R,ugm-3 (Ref.eq),10.27544,R,ugm-3,18.36917,R,ugm-3,34.12462,R,ugm-3
11-01-2020,19:00,6.763,R,ugm-3 (Ref.eq),10.11182,R,ugm-3,17.21235,R,ugm-3,32.71691,R,ugm-3